Tracking 21474 objects as of 26-Sep-2020
HD Live streaming from Space Station
objects crossing your sky now

KALAMSAT-V2/PSLV

Track KALAMSAT-V2/PSLV now!
10-day predictions
KALAMSAT-V2/PSLV is classified as:


NORAD ID: 43948
Int'l Code: 2019-006B
Perigee: 449.5 km
Apogee: 454.0 km
Inclination: 98.8 °
Period: 93.5 minutes
Semi major axis: 6822 km
RCS: Unknown
Launch date: January 24, 2019
Source: India (IND)
Launch site: SRIHARIKOTA (SRI)

Uplink (MHz):
Downlink (MHz): 436.500
Beacon (MHz):
Mode:
Call sign:
Status: Unknown

aabbcc
Your satellite tracking list
Your tracking list is empty




NASA's NSSDC Master Catalog

Two Line Element Set (TLE):
1 43948U 19006B   20269.22313124 +.00001405 +00000-0 +37493-4 0  9991
2 43948 098.8207 312.1726 0003289 313.8165 046.2804 15.40503056093774
Source of the keplerian elements: AFSPC